WZZ3LT EGGW-LCLK

Flight info

Callsign WZZ3LT
Flight time 4h 6m
Altitude 33000
Route MATCH3Y MATCH Q295 BRAIN M197 REDFA DCT TACHA DCT DODEN DCT NEGIX DCT DINKU DCT BESNI DCT LATLO DCT OBEDI DCT BERTA DCT TEBLI DCT MITNO DCT VABEK UL603 OLOTA DCT RUGAS DCT PEREN/N0452F350 DCT RIKSO UP14 ZAFLE DCT BENEM DCT EVENO DCT DASNI DCT BONEK BONEK1R
Aircraft A321/M-SDE3FGHIRWY/LB1

Departure

Time 2026-05-06 09:09
Airport London Luton Airport (EGGW)

Arrival

Time 2026-05-06 13:15
Airport Larnaca International Airport (LCLK)
Time Latitude Longitude Altitude Speed Heading
2026-05-06 08:40 51.88068 -0.37437 509 ft 0 kts 342°
2026-05-06 08:59 51.88052 -0.37428 508 ft 4 kts 341°
2026-05-06 08:59 51.88035 -0.37420 508 ft 4 kts 302°
2026-05-06 08:59 51.88025 -0.37389 508 ft 2 kts 312°
2026-05-06 09:00 51.88011 -0.37371 508 ft 4 kts 25°
2026-05-06 09:00 51.88004 -0.37376 508 ft 4 kts 43°
2026-05-06 09:00 51.88016 -0.37339 508 ft 4 kts 70°
2026-05-06 09:00 51.88023 -0.37306 508 ft 4 kts 72°
2026-05-06 09:01 51.88029 -0.37275 508 ft 0 kts 72°
2026-05-06 09:03 51.88035 -0.37244 508 ft 7 kts 72°
2026-05-06 09:03 51.88039 -0.37162 508 ft 8 kts 109°
2026-05-06 09:03 51.87993 -0.37121 508 ft 9 kts 162°
2026-05-06 09:03 51.87913 -0.37077 509 ft 17 kts 161°
2026-05-06 09:04 51.87780 -0.37007 516 ft 21 kts 161°
2026-05-06 09:04 51.87661 -0.36947 524 ft 14 kts 176°
2026-05-06 09:04 51.87611 -0.37071 522 ft 15 kts 253°
2026-05-06 09:04 51.87580 -0.37252 522 ft 19 kts 255°
2026-05-06 09:05 51.87576 -0.37429 523 ft 13 kts 243°
2026-05-06 09:05 51.87503 -0.37536 522 ft 15 kts 252°
2026-05-06 09:05 51.87474 -0.37705 523 ft 16 kts 254°
2026-05-06 09:05 51.87441 -0.37895 523 ft 17 kts 253°
2026-05-06 09:06 51.87387 -0.38050 523 ft 10 kts 209°
2026-05-06 09:06 51.87370 -0.38064 523 ft 0 kts 207°
2026-05-06 09:06 51.87367 -0.38066 523 ft 2 kts 207°
2026-05-06 09:07 51.87338 -0.38089 522 ft 7 kts 206°
2026-05-06 09:07 51.87275 -0.38110 523 ft 11 kts 184°
2026-05-06 09:07 51.87228 -0.38203 523 ft 14 kts 252°
2026-05-06 09:07 51.87206 -0.38296 520 ft 3 kts 347°
2026-05-06 09:08 51.87227 -0.38215 523 ft 15 kts 74°
2026-05-06 09:08 51.87310 -0.37741 523 ft 82 kts 74°
2026-05-06 09:08 51.87527 -0.36491 525 ft 146 kts 74°
2026-05-06 09:08 51.87835 -0.34703 866 ft 174 kts 73°
2026-05-06 09:09 51.88196 -0.32784 1673 ft 181 kts 72°
2026-05-06 09:09 51.88539 -0.30911 2383 ft 171 kts 70°
2026-05-06 09:09 51.88869 -0.29054 2846 ft 174 kts 71°
2026-05-06 09:09 51.89192 -0.27152 3310 ft 176 kts 71°
2026-05-06 09:10 51.89498 -0.25212 3734 ft 182 kts 76°
2026-05-06 09:10 51.89498 -0.23107 4150 ft 195 kts 99°
2026-05-06 09:10 51.88889 -0.21074 4514 ft 211 kts 126°
2026-05-06 09:10 51.87633 -0.19670 4691 ft 232 kts 155°
2026-05-06 09:11 51.86105 -0.18606 4844 ft 246 kts 155°
2026-05-06 09:11 51.84480 -0.17467 4964 ft 267 kts 155°
2026-05-06 09:11 51.82715 -0.16222 5010 ft 283 kts 155°
2026-05-06 09:11 51.80899 -0.14932 5026 ft 286 kts 154°
2026-05-06 09:12 51.79077 -0.13631 5027 ft 287 kts 155°
2026-05-06 09:12 51.77333 -0.12091 5047 ft 286 kts 136°
2026-05-06 09:12 51.76086 -0.09644 5628 ft 282 kts 114°
2026-05-06 09:12 51.75497 -0.06663 6269 ft 279 kts 91°
2026-05-06 09:13 51.75652 -0.03592 6828 ft 277 kts 73°
2026-05-06 09:13 51.76090 -0.00549 7083 ft 279 kts 73°
2026-05-06 09:13 51.76536 0.02497 7728 ft 279 kts 73°
2026-05-06 09:13 51.76984 0.05559 8368 ft 281 kts 73°
2026-05-06 09:14 51.77433 0.08650 8987 ft 284 kts 73°
2026-05-06 09:14 51.77884 0.11776 9576 ft 288 kts 75°
2026-05-06 09:14 51.78337 0.14931 10132 ft 291 kts 73°
2026-05-06 09:14 51.78812 0.18224 10294 ft 310 kts 74°
2026-05-06 09:15 51.79316 0.21720 10428 ft 328 kts 76°
2026-05-06 09:15 51.79847 0.25410 10549 ft 346 kts 74°
2026-05-06 09:15 51.80399 0.29281 10671 ft 362 kts 75°
2026-05-06 09:15 51.80971 0.33336 10797 ft 378 kts 75°
2026-05-06 09:16 51.81557 0.37496 10978 ft 390 kts 77°
2026-05-06 09:16 51.82167 0.41862 11451 ft 395 kts 76°
2026-05-06 09:16 51.82768 0.46154 11931 ft 399 kts 75°
2026-05-06 09:16 51.83404 0.50529 12438 ft 402 kts 75°
2026-05-06 09:17 51.84066 0.54929 12962 ft 405 kts 75°
2026-05-06 09:17 51.84745 0.59367 13448 ft 408 kts 75°
2026-05-06 09:17 51.85431 0.63845 13955 ft 412 kts 75°
2026-05-06 09:17 51.86118 0.68369 14365 ft 416 kts 76°
2026-05-06 09:18 51.86802 0.72934 14837 ft 419 kts 76°
2026-05-06 09:18 51.87485 0.77532 15279 ft 423 kts 75°
2026-05-06 09:18 51.88170 0.82177 15706 ft 426 kts 76°
2026-05-06 09:18 51.88857 0.86849 16156 ft 429 kts 76°
2026-05-06 09:19 51.89548 0.91566 16548 ft 433 kts 76°
2026-05-06 09:19 51.90244 0.96332 16987 ft 435 kts 76°
2026-05-06 09:19 51.90941 1.01118 17380 ft 438 kts 76°
2026-05-06 09:19 51.91641 1.05921 17831 ft 440 kts 76°
2026-05-06 09:20 51.92346 1.10762 18195 ft 443 kts 76°
2026-05-06 09:20 51.93052 1.15634 18580 ft 445 kts 76°
2026-05-06 09:20 51.93758 1.20526 18908 ft 448 kts 77°
2026-05-06 09:20 51.94468 1.25454 19263 ft 449 kts 77°
2026-05-06 09:21 51.95178 1.30392 19623 ft 452 kts 77°
2026-05-06 09:21 51.95891 1.35373 19968 ft 454 kts 77°
2026-05-06 09:21 51.96604 1.40375 20328 ft 456 kts 77°
2026-05-06 09:21 51.97314 1.45406 20656 ft 459 kts 77°
2026-05-06 09:22 51.98024 1.50461 21011 ft 461 kts 77°
2026-05-06 09:22 51.98737 1.55536 21331 ft 463 kts 78°
2026-05-06 09:22 51.99455 1.60637 21687 ft 465 kts 77°
2026-05-06 09:22 52.00179 1.65766 21988 ft 467 kts 78°
2026-05-06 09:23 52.00901 1.70913 22332 ft 469 kts 78°
2026-05-06 09:23 52.01622 1.76083 22619 ft 471 kts 78°
2026-05-06 09:23 52.02344 1.81280 22953 ft 473 kts 78°
2026-05-06 09:23 52.03065 1.86501 23239 ft 475 kts 78°
2026-05-06 09:24 52.03785 1.91746 23547 ft 477 kts 78°
2026-05-06 09:24 52.04495 1.96943 23800 ft 479 kts 78°
2026-05-06 09:24 52.05214 2.02230 24103 ft 480 kts 78°
2026-05-06 09:24 52.05934 2.07524 24377 ft 481 kts 78°
2026-05-06 09:25 52.06665 2.12890 24791 ft 479 kts 78°
2026-05-06 09:25 52.07384 2.18169 25176 ft 478 kts 78°
2026-05-06 09:25 52.08098 2.23437 25561 ft 476 kts 78°
2026-05-06 09:25 52.08796 2.28618 25942 ft 475 kts 79°
2026-05-06 09:26 52.09498 2.33868 26332 ft 474 kts 78°
2026-05-06 09:26 52.10191 2.39094 26712 ft 473 kts 79°
2026-05-06 09:26 52.10880 2.44324 27090 ft 472 kts 79°
2026-05-06 09:26 52.11612 2.49523 27475 ft 471 kts 75°
2026-05-06 09:27 52.12573 2.54612 27847 ft 470 kts 74°
2026-05-06 09:27 52.13544 2.59679 28247 ft 469 kts 74°
2026-05-06 09:27 52.14513 2.64739 28633 ft 468 kts 74°
2026-05-06 09:27 52.15473 2.69787 29001 ft 466 kts 74°
2026-05-06 09:28 52.16427 2.74828 29364 ft 465 kts 74°
2026-05-06 09:28 52.17378 2.79861 29745 ft 464 kts 75°
2026-05-06 09:28 52.18325 2.84876 30091 ft 463 kts 74°
2026-05-06 09:28 52.19265 2.89879 30405 ft 462 kts 75°
2026-05-06 09:29 52.20201 2.94880 30677 ft 461 kts 75°
2026-05-06 09:29 52.21134 2.99873 30995 ft 459 kts 75°
2026-05-06 09:29 52.22059 3.04841 31307 ft 457 kts 74°
2026-05-06 09:29 52.22976 3.09796 31607 ft 456 kts 76°
2026-05-06 09:30 52.23809 3.14774 31851 ft 455 kts 80°
2026-05-06 09:30 52.24178 3.19878 32104 ft 452 kts 90°
2026-05-06 09:30 52.24049 3.24982 32278 ft 450 kts 98°
2026-05-06 09:30 52.23422 3.29966 32474 ft 448 kts 108°
2026-05-06 09:31 52.22322 3.34699 32747 ft 445 kts 117°
2026-05-06 09:31 52.20939 3.39218 32889 ft 445 kts 118°
2026-05-06 09:31 52.19542 3.43723 32911 ft 445 kts 117°
2026-05-06 09:32 52.16747 3.52697 32910 ft 443 kts 118°
2026-05-06 09:32 52.13946 3.61633 32912 ft 442 kts 118°
2026-05-06 09:33 52.11161 3.70486 32902 ft 443 kts 118°
2026-05-06 09:33 52.08348 3.79409 32905 ft 443 kts 118°
2026-05-06 09:34 52.05541 3.88310 32908 ft 443 kts 118°
2026-05-06 09:34 52.02722 3.97219 32905 ft 443 kts 119°
2026-05-06 09:35 51.99889 4.06094 32898 ft 443 kts 118°
2026-05-06 09:35 51.97055 4.14942 32892 ft 444 kts 118°
2026-05-06 09:36 51.94205 4.23829 32889 ft 444 kts 118°
2026-05-06 09:36 51.91347 4.32703 32894 ft 444 kts 118°
2026-05-06 09:37 51.88476 4.41561 32888 ft 444 kts 118°
2026-05-06 09:37 51.85607 4.50414 32894 ft 445 kts 118°
2026-05-06 09:38 51.82736 4.59261 32886 ft 444 kts 118°
2026-05-06 09:38 51.79853 4.68102 32884 ft 444 kts 118°
2026-05-06 09:39 51.76974 4.76858 32868 ft 444 kts 119°
2026-05-06 09:39 51.74077 4.85658 32858 ft 444 kts 119°
2026-05-06 09:40 51.71190 4.94407 32865 ft 441 kts 119°
2026-05-06 09:40 51.66840 5.07518 32864 ft 443 kts 119°
2026-05-06 09:41 51.63925 5.16279 32866 ft 442 kts 120°
2026-05-06 09:41 51.61010 5.25000 32861 ft 443 kts 120°
2026-05-06 09:42 51.58085 5.33711 32862 ft 442 kts 120°
2026-05-06 09:42 51.55182 5.42348 32863 ft 442 kts 119°
2026-05-06 09:43 51.52251 5.51025 32864 ft 442 kts 119°
2026-05-06 09:43 51.49315 5.59705 32861 ft 442 kts 120°
2026-05-06 09:44 51.46868 5.66896 32856 ft 443 kts 119°
2026-05-06 09:44 51.43906 5.75556 32857 ft 442 kts 120°
2026-05-06 09:45 51.40944 5.84210 32837 ft 444 kts 120°
2026-05-06 09:45 51.37972 5.92872 32833 ft 444 kts 120°
2026-05-06 09:46 51.34989 6.01524 32834 ft 443 kts 120°
2026-05-06 09:46 51.32006 6.10165 32821 ft 444 kts 120°
2026-05-06 09:47 51.29016 6.18783 32828 ft 444 kts 120°
2026-05-06 09:47 51.26001 6.27423 32829 ft 447 kts 120°
2026-05-06 09:48 51.22965 6.36099 32840 ft 448 kts 120°
2026-05-06 09:48 51.19923 6.44778 32838 ft 448 kts 121°
2026-05-06 09:49 51.16882 6.53442 32838 ft 448 kts 121°
2026-05-06 09:49 51.13850 6.62039 32811 ft 448 kts 121°
2026-05-06 09:50 51.10788 6.70676 32808 ft 448 kts 121°
2026-05-06 09:50 51.07724 6.79295 32807 ft 447 kts 121°
2026-05-06 09:51 51.04652 6.87899 32801 ft 447 kts 121°
2026-05-06 09:51 51.01573 6.96490 32805 ft 447 kts 121°
2026-05-06 09:52 50.98492 7.05078 32808 ft 447 kts 121°
2026-05-06 09:52 50.95413 7.13655 32812 ft 448 kts 122°
2026-05-06 09:53 50.92317 7.22226 32810 ft 448 kts 122°
2026-05-06 09:53 50.89205 7.30788 32809 ft 448 kts 122°
2026-05-06 09:54 50.86095 7.39330 32802 ft 448 kts 122°
2026-05-06 09:54 50.82979 7.47865 32794 ft 448 kts 122°
2026-05-06 09:55 50.79852 7.56392 32776 ft 450 kts 123°
2026-05-06 09:55 50.76701 7.64950 32778 ft 451 kts 123°
2026-05-06 09:56 50.73546 7.73501 32778 ft 451 kts 123°
2026-05-06 09:56 50.70387 7.82049 32780 ft 451 kts 123°
2026-05-06 09:57 50.67243 7.90526 32781 ft 451 kts 123°
2026-05-06 09:57 50.64043 7.99099 32793 ft 453 kts 124°
2026-05-06 09:58 50.60856 8.07616 32761 ft 454 kts 125°
2026-05-06 09:58 50.57092 8.15503 32761 ft 450 kts 133°
2026-05-06 09:59 50.53182 8.23193 32754 ft 450 kts 133°
2026-05-06 09:59 50.49270 8.30874 32755 ft 450 kts 133°
2026-05-06 10:00 50.45352 8.38541 32752 ft 450 kts 133°
2026-05-06 10:00 50.41430 8.46181 32758 ft 450 kts 133°
2026-05-06 10:01 50.37515 8.53754 32826 ft 434 kts 134°
2026-05-06 10:01 50.35585 8.57252 32722 ft 414 kts 136°
2026-05-06 10:01 50.33688 8.60480 32764 ft 394 kts 138°
2026-05-06 10:02 50.29955 8.66550 32767 ft 383 kts 140°
2026-05-06 10:02 50.26279 8.72541 32772 ft 382 kts 139°
2026-05-06 10:03 50.22636 8.78572 32773 ft 381 kts 139°
2026-05-06 10:03 50.19005 8.84613 32775 ft 381 kts 139°
2026-05-06 10:04 50.15378 8.90645 32775 ft 381 kts 139°
2026-05-06 10:04 50.11737 8.96675 32774 ft 381 kts 139°
2026-05-06 10:05 50.08121 9.02644 32773 ft 381 kts 139°
2026-05-06 10:05 50.04489 9.08625 32774 ft 378 kts 140°
2026-05-06 10:06 50.00878 9.14553 32759 ft 376 kts 140°
2026-05-06 10:06 49.97296 9.20436 32772 ft 374 kts 140°
2026-05-06 10:07 49.93712 9.26304 32783 ft 374 kts 140°
2026-05-06 10:07 49.90126 9.32151 32776 ft 374 kts 140°
2026-05-06 10:08 49.86530 9.37994 32728 ft 378 kts 140°
2026-05-06 10:08 49.82856 9.43943 32781 ft 387 kts 140°
2026-05-06 10:09 49.79069 9.50063 32793 ft 399 kts 140°
2026-05-06 10:09 49.75177 9.56353 32777 ft 410 kts 140°
2026-05-06 10:10 49.71201 9.62775 32782 ft 422 kts 140°
2026-05-06 10:10 49.67088 9.69402 32786 ft 433 kts 140°
2026-05-06 10:11 49.62895 9.76141 32798 ft 436 kts 140°
2026-05-06 10:11 49.58677 9.82891 32800 ft 437 kts 140°
2026-05-06 10:12 49.54458 9.89622 32793 ft 437 kts 140°
2026-05-06 10:12 49.50206 9.96379 32807 ft 441 kts 141°
2026-05-06 10:13 49.45935 10.03163 32809 ft 442 kts 141°
2026-05-06 10:13 49.41660 10.09948 32810 ft 442 kts 141°
2026-05-06 10:14 49.37372 10.16714 32809 ft 442 kts 142°
2026-05-06 10:14 49.33080 10.23459 32813 ft 442 kts 141°
2026-05-06 10:15 49.28814 10.30156 32811 ft 443 kts 142°
2026-05-06 10:15 49.24487 10.36921 32842 ft 445 kts 142°
2026-05-06 10:16 49.20121 10.43621 32833 ft 444 kts 143°
2026-05-06 10:16 49.15685 10.50180 32852 ft 443 kts 144°
2026-05-06 10:17 49.11228 10.56708 32849 ft 444 kts 143°
2026-05-06 10:17 49.06791 10.63246 32820 ft 444 kts 143°
2026-05-06 10:18 49.02340 10.69823 32846 ft 446 kts 143°
2026-05-06 10:18 48.97897 10.76377 32849 ft 445 kts 143°
2026-05-06 10:19 48.93448 10.82913 32845 ft 444 kts 143°
2026-05-06 10:19 48.88992 10.89423 32842 ft 444 kts 143°
2026-05-06 10:20 48.84533 10.95913 32837 ft 444 kts 143°
2026-05-06 10:20 48.80074 11.02402 32841 ft 444 kts 143°
2026-05-06 10:21 48.75628 11.08868 32839 ft 442 kts 143°
2026-05-06 10:21 48.71226 11.15262 32838 ft 441 kts 144°
2026-05-06 10:22 48.66792 11.21663 32838 ft 440 kts 144°
2026-05-06 10:22 48.62394 11.28143 32832 ft 443 kts 141°
2026-05-06 10:23 48.58234 11.35060 32810 ft 446 kts 139°
2026-05-06 10:23 48.54151 11.42117 32833 ft 446 kts 139°
2026-05-06 10:24 48.50011 11.49085 32816 ft 445 kts 140°
2026-05-06 10:24 48.45835 11.55948 32836 ft 444 kts 140°
2026-05-06 10:25 48.41655 11.62782 32813 ft 444 kts 140°
2026-05-06 10:25 48.37484 11.69625 32779 ft 444 kts 140°
2026-05-06 10:26 48.33304 11.76490 32808 ft 446 kts 140°
2026-05-06 10:26 48.29109 11.83353 32807 ft 446 kts 141°
2026-05-06 10:27 48.24912 11.90199 32802 ft 446 kts 141°
2026-05-06 10:27 48.20709 11.97052 32819 ft 446 kts 141°
2026-05-06 10:28 48.16528 12.03824 32757 ft 446 kts 141°
2026-05-06 10:28 48.12298 12.10651 32803 ft 447 kts 141°
2026-05-06 10:29 48.08042 12.17523 32799 ft 448 kts 141°
2026-05-06 10:29 48.03833 12.24304 32799 ft 447 kts 141°
2026-05-06 10:30 47.99593 12.31105 32799 ft 447 kts 141°
2026-05-06 10:30 47.95347 12.37908 32797 ft 449 kts 141°
2026-05-06 10:31 47.91087 12.44719 32791 ft 449 kts 141°
2026-05-06 10:31 47.86828 12.51512 32786 ft 449 kts 141°
2026-05-06 10:32 47.82560 12.58291 32789 ft 449 kts 141°
2026-05-06 10:32 47.78287 12.65051 32799 ft 448 kts 141°
2026-05-06 10:33 47.74007 12.71802 32779 ft 449 kts 141°
2026-05-06 10:33 47.69725 12.78551 32802 ft 449 kts 141°
2026-05-06 10:34 47.65414 12.85226 32799 ft 446 kts 143°
2026-05-06 10:34 47.61760 12.90611 32801 ft 447 kts 144°
2026-05-06 10:35 47.57318 12.97060 32792 ft 447 kts 143°
2026-05-06 10:35 47.52180 13.04594 32757 ft 448 kts 143°
2026-05-06 10:36 47.48465 13.10062 32775 ft 451 kts 143°
2026-05-06 10:36 47.44008 13.16604 32787 ft 452 kts 143°
2026-05-06 10:37 47.39529 13.23145 32800 ft 453 kts 143°
2026-05-06 10:37 47.35053 13.29684 32803 ft 453 kts 143°
2026-05-06 10:38 47.30579 13.36226 32808 ft 454 kts 143°
2026-05-06 10:38 47.26169 13.42871 32854 ft 458 kts 142°
2026-05-06 10:39 47.21736 13.49618 32851 ft 459 kts 142°
2026-05-06 10:39 47.17258 13.56374 32865 ft 463 kts 142°
2026-05-06 10:40 47.12747 13.63125 32888 ft 463 kts 142°
2026-05-06 10:40 47.08228 13.69867 32873 ft 463 kts 142°
2026-05-06 10:41 47.03703 13.76600 32909 ft 464 kts 142°
2026-05-06 10:41 46.99169 13.83330 32912 ft 464 kts 142°
2026-05-06 10:42 46.94634 13.90047 32916 ft 463 kts 142°
2026-05-06 10:42 46.90106 13.96735 32917 ft 462 kts 142°
2026-05-06 10:43 46.85583 14.03405 32912 ft 462 kts 142°
2026-05-06 10:44 46.78785 14.13408 32938 ft 462 kts 142°
2026-05-06 10:44 46.74243 14.20060 32947 ft 463 kts 142°
2026-05-06 10:45 46.69696 14.26695 32942 ft 463 kts 142°
2026-05-06 10:45 46.65137 14.33327 32933 ft 464 kts 141°
2026-05-06 10:46 46.60562 14.39969 32946 ft 465 kts 141°
2026-05-06 10:46 46.55985 14.46615 32946 ft 465 kts 141°
2026-05-06 10:47 46.51405 14.53247 32946 ft 464 kts 141°
2026-05-06 10:47 46.46816 14.59855 32950 ft 465 kts 141°
2026-05-06 10:48 46.42335 14.66586 32952 ft 471 kts 137°
2026-05-06 10:48 46.38091 14.73881 32962 ft 475 kts 135°
2026-05-06 10:49 46.33923 14.81282 32958 ft 474 kts 135°
2026-05-06 10:49 46.29677 14.88581 32962 ft 473 kts 136°
2026-05-06 10:50 46.25382 14.95784 32951 ft 473 kts 137°
2026-05-06 10:50 46.21062 15.02989 32964 ft 475 kts 136°
2026-05-06 10:51 46.16747 15.10216 32956 ft 475 kts 137°
2026-05-06 10:51 46.12448 15.17435 32961 ft 474 kts 137°
2026-05-06 10:52 46.08152 15.24618 32961 ft 473 kts 137°
2026-05-06 10:52 46.03836 15.31797 32956 ft 474 kts 137°
2026-05-06 10:53 45.99518 15.38970 32962 ft 475 kts 136°
2026-05-06 10:53 45.95185 15.46142 32965 ft 475 kts 137°
2026-05-06 10:54 45.90881 15.53245 32974 ft 475 kts 137°
2026-05-06 10:54 45.86558 15.60367 32972 ft 472 kts 137°
2026-05-06 10:55 45.82238 15.67475 32980 ft 472 kts 137°
2026-05-06 10:55 45.77917 15.74556 32970 ft 472 kts 137°
2026-05-06 10:56 45.73593 15.81635 32954 ft 472 kts 137°
2026-05-06 10:56 45.69264 15.88701 32964 ft 473 kts 137°
2026-05-06 10:57 45.64920 15.95762 32956 ft 473 kts 137°
2026-05-06 10:57 45.60569 16.02811 32956 ft 473 kts 137°
2026-05-06 10:58 45.56209 16.09857 32953 ft 473 kts 137°
2026-05-06 10:58 45.51858 16.16905 32923 ft 473 kts 136°
2026-05-06 10:59 45.47502 16.23933 32949 ft 473 kts 137°
2026-05-06 10:59 45.43126 16.30957 32952 ft 473 kts 137°
2026-05-06 11:00 45.38751 16.37956 32955 ft 473 kts 137°
2026-05-06 11:00 45.34414 16.44894 32956 ft 472 kts 137°
2026-05-06 11:01 45.30043 16.51855 32956 ft 472 kts 136°
2026-05-06 11:01 45.25664 16.58802 32953 ft 472 kts 136°
2026-05-06 11:02 45.21282 16.65751 32950 ft 472 kts 136°
2026-05-06 11:02 45.17048 16.72900 32953 ft 475 kts 132°
2026-05-06 11:03 45.13115 16.80453 32957 ft 477 kts 130°
2026-05-06 11:03 45.09221 16.88060 32956 ft 476 kts 130°
2026-05-06 11:04 45.05248 16.95544 32949 ft 476 kts 131°
2026-05-06 11:04 45.01219 17.02965 32949 ft 475 kts 132°
2026-05-06 11:05 44.97192 17.10379 32951 ft 476 kts 131°
2026-05-06 11:05 44.93161 17.17820 32948 ft 477 kts 131°
2026-05-06 11:06 44.89137 17.25256 32945 ft 477 kts 131°
2026-05-06 11:06 44.85107 17.32684 32947 ft 477 kts 131°
2026-05-06 11:07 44.81077 17.40099 32951 ft 476 kts 131°
2026-05-06 11:07 44.77039 17.47482 32950 ft 476 kts 131°
2026-05-06 11:08 44.72989 17.54858 32952 ft 476 kts 131°
2026-05-06 11:08 44.68962 17.62186 32955 ft 476 kts 131°
2026-05-06 11:09 44.64915 17.69541 32959 ft 476 kts 131°
2026-05-06 11:09 44.60859 17.76882 32958 ft 476 kts 131°
2026-05-06 11:10 44.56798 17.84206 32961 ft 475 kts 131°
2026-05-06 11:10 44.52748 17.91519 32957 ft 474 kts 131°
2026-05-06 11:11 44.48700 17.98798 32957 ft 473 kts 131°
2026-05-06 11:11 44.44646 18.06066 32973 ft 473 kts 131°
2026-05-06 11:12 44.40596 18.13320 32955 ft 473 kts 131°
2026-05-06 11:12 44.36533 18.20561 32958 ft 473 kts 131°
2026-05-06 11:13 44.32470 18.27795 32965 ft 473 kts 131°
2026-05-06 11:13 44.28401 18.35022 32973 ft 473 kts 131°
2026-05-06 11:14 44.24327 18.42233 32975 ft 473 kts 131°
2026-05-06 11:14 44.20251 18.49434 32975 ft 473 kts 131°
2026-05-06 11:15 44.16191 18.56584 32970 ft 473 kts 131°
2026-05-06 11:15 44.12106 18.63761 32974 ft 473 kts 131°
2026-05-06 11:16 44.08017 18.70931 32967 ft 473 kts 131°
2026-05-06 11:16 44.03931 18.78093 32977 ft 473 kts 131°
2026-05-06 11:17 43.99831 18.85247 32972 ft 474 kts 131°
2026-05-06 11:17 43.95714 18.92394 32979 ft 474 kts 131°
2026-05-06 11:18 43.91592 18.99548 32979 ft 474 kts 131°
2026-05-06 11:18 43.87498 19.06635 32981 ft 474 kts 131°
2026-05-06 11:19 43.83375 19.13772 32977 ft 475 kts 131°
2026-05-06 11:19 43.79238 19.20909 32976 ft 475 kts 131°
2026-05-06 11:20 43.75122 19.28047 32980 ft 475 kts 130°
2026-05-06 11:20 43.71139 19.35352 32974 ft 476 kts 129°
2026-05-06 11:21 43.67183 19.42709 32983 ft 477 kts 129°
2026-05-06 11:21 43.63186 19.50028 32985 ft 477 kts 130°
2026-05-06 11:22 43.59164 19.57311 32986 ft 477 kts 130°
2026-05-06 11:22 43.55160 19.64541 32981 ft 478 kts 130°
2026-05-06 11:23 43.51122 19.71829 32989 ft 479 kts 130°
2026-05-06 11:23 43.47069 19.79123 32992 ft 479 kts 130°
2026-05-06 11:24 43.43017 19.86417 32988 ft 479 kts 130°
2026-05-06 11:24 43.38965 19.93707 32999 ft 480 kts 130°
2026-05-06 11:25 43.34890 20.00989 33002 ft 481 kts 130°
2026-05-06 11:25 43.30805 20.08269 33006 ft 481 kts 130°
2026-05-06 11:26 43.26708 20.15542 33009 ft 481 kts 130°
2026-05-06 11:26 43.22635 20.22776 33008 ft 482 kts 130°
2026-05-06 11:27 43.18535 20.30053 33010 ft 482 kts 130°
2026-05-06 11:27 43.14427 20.37314 33016 ft 482 kts 130°
2026-05-06 11:28 43.11001 20.43339 33020 ft 483 kts 130°
2026-05-06 11:28 43.06873 20.50590 33030 ft 484 kts 130°
2026-05-06 11:29 43.02734 20.57848 33032 ft 484 kts 130°
2026-05-06 11:29 42.98310 20.64747 33041 ft 481 kts 139°
2026-05-06 11:30 42.93466 20.71066 33041 ft 481 kts 139°
2026-05-06 11:30 42.88624 20.77381 33043 ft 482 kts 139°
2026-05-06 11:31 42.83780 20.83699 33049 ft 483 kts 138°
2026-05-06 11:31 42.78920 20.90012 33067 ft 483 kts 139°
2026-05-06 11:32 42.74044 20.96331 33076 ft 484 kts 139°
2026-05-06 11:32 42.69173 21.02634 33081 ft 484 kts 139°
2026-05-06 11:33 42.64328 21.08886 33053 ft 483 kts 139°
2026-05-06 11:33 42.59448 21.15171 33061 ft 484 kts 138°
2026-05-06 11:34 42.54553 21.21462 33052 ft 485 kts 138°
2026-05-06 11:34 42.49645 21.27747 33055 ft 485 kts 139°
2026-05-06 11:35 42.44731 21.34023 33053 ft 485 kts 139°
2026-05-06 11:35 42.39824 21.40296 33050 ft 485 kts 139°
2026-05-06 11:36 42.34908 21.46566 33047 ft 485 kts 139°
2026-05-06 11:36 42.29985 21.52813 33044 ft 485 kts 139°
2026-05-06 11:37 42.25066 21.59048 33037 ft 485 kts 139°
2026-05-06 11:37 42.20163 21.65314 33049 ft 486 kts 137°
2026-05-06 11:38 42.15394 21.71680 33030 ft 486 kts 136°
2026-05-06 11:38 42.10593 21.78162 33025 ft 485 kts 137°
2026-05-06 11:39 42.05809 21.84514 33041 ft 487 kts 137°
2026-05-06 11:39 42.00959 21.90891 33037 ft 488 kts 137°
2026-05-06 11:40 41.96102 21.97260 33040 ft 488 kts 137°
2026-05-06 11:40 41.91246 22.03643 33040 ft 488 kts 137°
2026-05-06 11:41 41.86397 22.09999 33042 ft 488 kts 137°
2026-05-06 11:41 41.81528 22.16370 33049 ft 489 kts 137°
2026-05-06 11:42 41.76647 22.22742 33046 ft 490 kts 137°
2026-05-06 11:42 41.71760 22.29106 33047 ft 490 kts 137°
2026-05-06 11:43 41.66866 22.35455 33053 ft 490 kts 137°
2026-05-06 11:43 41.61970 22.41801 33047 ft 490 kts 137°
2026-05-06 11:44 41.54608 22.51311 33054 ft 492 kts 137°
2026-05-06 11:44 41.49726 22.57613 33046 ft 492 kts 137°
2026-05-06 11:45 41.44800 22.63964 33060 ft 492 kts 137°
2026-05-06 11:45 41.39872 22.70292 33046 ft 492 kts 137°
2026-05-06 11:46 41.34934 22.76604 33064 ft 492 kts 137°
2026-05-06 11:46 41.30349 22.83377 33053 ft 494 kts 129°
2026-05-06 11:47 41.26013 22.90461 33043 ft 494 kts 129°
2026-05-06 11:47 41.21665 22.97549 33064 ft 495 kts 129°
2026-05-06 11:48 41.17311 23.04621 33045 ft 495 kts 129°
2026-05-06 11:48 41.12950 23.11682 33073 ft 495 kts 129°
2026-05-06 11:49 41.08581 23.18764 33056 ft 496 kts 129°
2026-05-06 11:49 41.04209 23.25826 33057 ft 496 kts 129°
2026-05-06 11:50 40.99820 23.32880 33043 ft 496 kts 129°
2026-05-06 11:50 40.95432 23.39920 33062 ft 496 kts 129°
2026-05-06 11:51 40.91037 23.46968 33059 ft 498 kts 129°
2026-05-06 11:51 40.86657 23.53985 33066 ft 498 kts 129°
2026-05-06 11:52 40.82232 23.61045 33056 ft 498 kts 129°
2026-05-06 11:52 40.77804 23.68075 33062 ft 498 kts 129°
2026-05-06 11:53 40.73372 23.75110 33090 ft 498 kts 129°
2026-05-06 11:53 40.68932 23.82141 33066 ft 499 kts 129°
2026-05-06 11:54 40.64479 23.89174 33076 ft 500 kts 129°
2026-05-06 11:54 40.60024 23.96197 33076 ft 500 kts 129°
2026-05-06 11:55 40.55457 24.03108 33080 ft 500 kts 131°
2026-05-06 11:55 40.50754 24.09851 33075 ft 501 kts 132°
2026-05-06 11:56 40.46016 24.16588 33080 ft 502 kts 131°
2026-05-06 11:56 40.41308 24.23358 33079 ft 502 kts 131°
2026-05-06 11:57 40.36621 24.30142 33079 ft 502 kts 131°
2026-05-06 11:57 40.31923 24.36933 33088 ft 503 kts 131°
2026-05-06 11:58 40.27206 24.43710 33079 ft 505 kts 131°
2026-05-06 11:58 40.22493 24.50449 33081 ft 505 kts 131°
2026-05-06 11:59 40.17744 24.57223 33084 ft 505 kts 131°
2026-05-06 11:59 40.12992 24.63992 33084 ft 505 kts 131°
2026-05-06 12:00 40.08240 24.70757 33088 ft 505 kts 131°
2026-05-06 12:00 40.03487 24.77522 33089 ft 506 kts 131°
2026-05-06 12:01 39.98724 24.84268 33086 ft 505 kts 131°
2026-05-06 12:01 39.93952 24.91002 33086 ft 505 kts 131°
2026-05-06 12:02 39.89180 24.97733 33087 ft 505 kts 131°
2026-05-06 12:02 39.84404 25.04456 33079 ft 507 kts 131°
2026-05-06 12:03 39.79602 25.11198 33085 ft 508 kts 131°
2026-05-06 12:03 39.74796 25.17935 33084 ft 508 kts 131°
2026-05-06 12:04 39.70023 25.24606 33088 ft 508 kts 132°
2026-05-06 12:04 39.65208 25.31315 33091 ft 508 kts 132°
2026-05-06 12:05 39.60385 25.38031 33090 ft 509 kts 131°
2026-05-06 12:05 39.55541 25.44758 33093 ft 510 kts 131°
2026-05-06 12:06 39.50697 25.51470 33095 ft 510 kts 131°
2026-05-06 12:06 39.45851 25.58164 33096 ft 510 kts 132°
2026-05-06 12:07 39.41002 25.64854 33127 ft 510 kts 131°
2026-05-06 12:07 39.36169 25.71512 33092 ft 512 kts 131°
2026-05-06 12:08 39.31297 25.78218 33093 ft 512 kts 131°
2026-05-06 12:08 39.26411 25.84915 33092 ft 512 kts 132°
2026-05-06 12:09 39.21519 25.91597 33096 ft 512 kts 132°
2026-05-06 12:09 39.16624 25.98283 33098 ft 513 kts 132°
2026-05-06 12:10 39.11722 26.04965 33089 ft 514 kts 132°
2026-05-06 12:10 39.06798 26.11638 33093 ft 514 kts 132°
2026-05-06 12:11 39.01877 26.18298 33092 ft 514 kts 132°
2026-05-06 12:11 38.96964 26.24959 33098 ft 514 kts 132°
2026-05-06 12:12 38.92044 26.31610 33097 ft 513 kts 132°
2026-05-06 12:12 38.87179 26.38297 33066 ft 512 kts 126°
2026-05-06 12:13 38.83612 26.46084 33078 ft 504 kts 107°
2026-05-06 12:13 38.81949 26.54631 33087 ft 495 kts 94°
2026-05-06 12:14 38.80883 26.63351 33083 ft 494 kts 94°
2026-05-06 12:14 38.79804 26.72047 33091 ft 494 kts 94°
2026-05-06 12:15 38.78718 26.80732 33082 ft 493 kts 94°
2026-05-06 12:15 38.77398 26.89367 33092 ft 497 kts 104°
2026-05-06 12:16 38.74273 26.97296 33082 ft 504 kts 124°
2026-05-06 12:16 38.71988 27.00711 33061 ft 507 kts 135°
2026-05-06 12:16 38.69301 27.03636 33080 ft 509 kts 143°
2026-05-06 12:17 38.63602 27.09042 33073 ft 510 kts 143°
2026-05-06 12:17 38.57905 27.14433 33072 ft 510 kts 143°
2026-05-06 12:18 38.52200 27.19819 33064 ft 508 kts 143°
2026-05-06 12:18 38.46521 27.25158 33060 ft 507 kts 143°
2026-05-06 12:19 38.41796 27.29591 33072 ft 508 kts 143°
2026-05-06 12:19 38.35174 27.35806 33069 ft 509 kts 143°
2026-05-06 12:20 38.29464 27.41150 33064 ft 509 kts 143°
2026-05-06 12:20 38.23750 27.46479 33064 ft 509 kts 144°
2026-05-06 12:21 38.19006 27.50898 33054 ft 508 kts 144°
2026-05-06 12:21 38.13272 27.56246 33066 ft 508 kts 144°
2026-05-06 12:22 38.07608 27.61512 33062 ft 508 kts 144°
2026-05-06 12:22 38.01899 27.66809 33058 ft 508 kts 144°
2026-05-06 12:23 37.96193 27.72089 33062 ft 508 kts 144°
2026-05-06 12:23 37.90474 27.77359 33049 ft 508 kts 144°
2026-05-06 12:24 37.84748 27.82625 33056 ft 509 kts 144°
2026-05-06 12:24 37.79020 27.87899 33057 ft 509 kts 144°
2026-05-06 12:25 37.73289 27.93165 33055 ft 509 kts 144°
2026-05-06 12:25 37.67546 27.98425 33060 ft 510 kts 144°
2026-05-06 12:26 37.61804 28.03674 33046 ft 510 kts 144°
2026-05-06 12:26 37.56051 28.08925 33064 ft 510 kts 144°
2026-05-06 12:27 37.50300 28.14172 33072 ft 510 kts 144°
2026-05-06 12:27 37.44552 28.19405 33071 ft 510 kts 144°
2026-05-06 12:28 37.38788 28.24629 33073 ft 510 kts 145°
2026-05-06 12:28 37.33034 28.29838 33054 ft 510 kts 145°
2026-05-06 12:29 37.27260 28.35050 33071 ft 511 kts 145°
2026-05-06 12:29 37.21480 28.40253 33063 ft 510 kts 145°
2026-05-06 12:30 37.15760 28.45409 33070 ft 510 kts 145°
2026-05-06 12:30 37.10001 28.50593 33060 ft 510 kts 145°
2026-05-06 12:31 37.04237 28.55770 33053 ft 510 kts 145°
2026-05-06 12:31 36.98472 28.60936 33050 ft 510 kts 145°
2026-05-06 12:32 36.92698 28.66087 33052 ft 510 kts 145°
2026-05-06 12:32 36.86937 28.71229 33053 ft 508 kts 145°
2026-05-06 12:33 36.81177 28.76354 33059 ft 508 kts 146°
2026-05-06 12:33 36.75415 28.81465 33071 ft 509 kts 146°
2026-05-06 12:34 36.69652 28.86576 33048 ft 508 kts 146°
2026-05-06 12:34 36.63881 28.91683 33055 ft 508 kts 146°
2026-05-06 12:35 36.58116 28.96783 33065 ft 508 kts 146°
2026-05-06 12:35 36.52366 29.01863 33054 ft 507 kts 146°
2026-05-06 12:36 36.46612 29.06927 33043 ft 506 kts 146°
2026-05-06 12:36 36.40898 29.11937 33057 ft 506 kts 146°
2026-05-06 12:37 36.35147 29.16969 33046 ft 505 kts 146°
2026-05-06 12:37 36.29396 29.22008 33069 ft 506 kts 146°
2026-05-06 12:38 36.23644 29.27041 33055 ft 506 kts 146°
2026-05-06 12:38 36.18255 29.32638 33063 ft 508 kts 131°
2026-05-06 12:39 36.14207 29.39771 33055 ft 508 kts 121°
2026-05-06 12:39 36.10447 29.47176 33075 ft 508 kts 121°
2026-05-06 12:40 36.06683 29.54574 33073 ft 508 kts 122°
2026-05-06 12:40 36.02907 29.61973 33066 ft 510 kts 122°
2026-05-06 12:41 35.99116 29.69374 33065 ft 510 kts 122°
2026-05-06 12:41 35.95317 29.76763 33066 ft 510 kts 122°
2026-05-06 12:42 35.91513 29.84143 33085 ft 510 kts 122°
2026-05-06 12:42 35.87730 29.91475 33067 ft 510 kts 122°
2026-05-06 12:43 35.84009 29.98919 33057 ft 510 kts 116°
2026-05-06 12:43 35.81552 30.07074 33061 ft 508 kts 105°
2026-05-06 12:44 35.79469 30.15386 33059 ft 507 kts 105°
2026-05-06 12:44 35.77368 30.23667 33060 ft 507 kts 106°
2026-05-06 12:45 35.75265 30.31954 33057 ft 507 kts 105°
2026-05-06 12:46 35.72118 30.44375 33064 ft 506 kts 106°
2026-05-06 12:46 35.70008 30.52646 33061 ft 506 kts 106°
2026-05-06 12:47 35.67887 30.60904 33061 ft 506 kts 106°
2026-05-06 12:47 35.65758 30.69159 33063 ft 506 kts 106°
2026-05-06 12:48 35.63628 30.77415 33070 ft 506 kts 106°
2026-05-06 12:48 35.61491 30.85661 33066 ft 506 kts 106°
2026-05-06 12:49 35.59389 30.93922 33061 ft 506 kts 105°
2026-05-06 12:49 35.57329 31.02189 33063 ft 506 kts 105°
2026-05-06 12:50 35.55268 31.10450 33066 ft 506 kts 106°
2026-05-06 12:50 35.53185 31.18701 33070 ft 506 kts 106°
2026-05-06 12:51 35.51091 31.26884 33066 ft 506 kts 107°
2026-05-06 12:51 35.48980 31.35115 33068 ft 505 kts 107°
2026-05-06 12:52 35.46882 31.43341 33070 ft 505 kts 107°
2026-05-06 12:52 35.44776 31.51568 33067 ft 505 kts 107°
2026-05-06 12:53 35.42659 31.59786 33073 ft 505 kts 107°
2026-05-06 12:53 35.40536 31.68002 33068 ft 506 kts 107°
2026-05-06 12:54 35.38403 31.76214 33070 ft 506 kts 107°
2026-05-06 12:54 35.36273 31.84429 33072 ft 506 kts 107°
2026-05-06 12:55 35.34140 31.92645 33070 ft 506 kts 107°
2026-05-06 12:55 35.31993 32.00854 33067 ft 506 kts 107°
2026-05-06 12:55 35.30916 32.04960 32892 ft 507 kts 107°
2026-05-06 12:56 35.29833 32.09076 32111 ft 511 kts 108°
2026-05-06 12:56 35.28731 32.13248 31118 ft 517 kts 108°
2026-05-06 12:56 35.27620 32.17455 30098 ft 522 kts 107°
2026-05-06 12:56 35.26500 32.21699 29105 ft 523 kts 107°
2026-05-06 12:57 35.25379 32.25952 27947 ft 527 kts 107°
2026-05-06 12:57 35.24255 32.30213 26882 ft 528 kts 107°
2026-05-06 12:57 35.23124 32.34499 25842 ft 529 kts 107°
2026-05-06 12:57 35.21996 32.38767 24846 ft 528 kts 107°
2026-05-06 12:58 35.20878 32.42989 23871 ft 528 kts 108°
2026-05-06 12:58 35.19737 32.47272 23181 ft 519 kts 108°
2026-05-06 12:58 35.18637 32.51379 22482 ft 511 kts 108°
2026-05-06 12:58 35.17536 32.55477 21780 ft 504 kts 108°
2026-05-06 12:59 35.16453 32.59515 21066 ft 497 kts 108°
2026-05-06 12:59 35.15388 32.63495 20359 ft 489 kts 108°
2026-05-06 12:59 35.14342 32.67400 19434 ft 476 kts 108°
2026-05-06 12:59 35.13319 32.71202 18182 ft 465 kts 108°
2026-05-06 13:00 35.12319 32.74904 16782 ft 455 kts 108°
2026-05-06 13:00 35.11341 32.78533 15611 ft 443 kts 108°
2026-05-06 13:00 35.10386 32.82083 14946 ft 438 kts 107°
2026-05-06 13:00 35.09437 32.85603 14248 ft 436 kts 108°
2026-05-06 13:01 35.08488 32.89105 13536 ft 434 kts 108°
2026-05-06 13:01 35.07546 32.92581 12881 ft 429 kts 108°
2026-05-06 13:01 35.06602 32.96023 12249 ft 425 kts 108°
2026-05-06 13:01 35.05639 32.99421 11630 ft 421 kts 109°
2026-05-06 13:02 35.04681 33.02734 11336 ft 403 kts 109°
2026-05-06 13:02 35.03778 33.05831 11128 ft 372 kts 109°
2026-05-06 13:02 35.02945 33.08680 10985 ft 343 kts 109°
2026-05-06 13:02 35.02174 33.11319 10838 ft 319 kts 109°
2026-05-06 13:03 35.01451 33.13808 10476 ft 306 kts 109°
2026-05-06 13:03 35.00750 33.16236 10253 ft 303 kts 108°
2026-05-06 13:03 35.00053 33.18648 10015 ft 299 kts 108°
2026-05-06 13:03 34.99365 33.21034 9758 ft 298 kts 108°
2026-05-06 13:04 34.98680 33.23418 9414 ft 297 kts 108°
2026-05-06 13:04 34.97999 33.25780 9082 ft 294 kts 108°
2026-05-06 13:04 34.97321 33.28124 8740 ft 292 kts 108°
2026-05-06 13:04 34.96647 33.30450 8400 ft 290 kts 108°
2026-05-06 13:05 34.95976 33.32767 8068 ft 289 kts 108°
2026-05-06 13:05 34.95308 33.35064 7747 ft 287 kts 108°
2026-05-06 13:05 34.94640 33.37349 7417 ft 286 kts 109°
2026-05-06 13:05 34.93975 33.39627 7088 ft 284 kts 108°
2026-05-06 13:06 34.93317 33.41889 6766 ft 283 kts 108°
2026-05-06 13:06 34.92663 33.44144 6455 ft 282 kts 108°
2026-05-06 13:06 34.92011 33.46388 6136 ft 281 kts 108°
2026-05-06 13:06 34.91360 33.48627 5832 ft 277 kts 108°
2026-05-06 13:07 34.90729 33.50789 5525 ft 266 kts 108°
2026-05-06 13:07 34.90126 33.52851 5253 ft 251 kts 109°
2026-05-06 13:07 34.89554 33.54798 4953 ft 245 kts 109°
2026-05-06 13:07 34.88973 33.56775 4642 ft 245 kts 108°
2026-05-06 13:08 34.88412 33.58690 4342 ft 242 kts 109°
2026-05-06 13:08 34.87847 33.60614 4065 ft 239 kts 109°
2026-05-06 13:08 34.87294 33.62514 4004 ft 238 kts 109°
2026-05-06 13:08 34.86741 33.64433 3789 ft 239 kts 108°
2026-05-06 13:09 34.86199 33.66338 3529 ft 238 kts 109°
2026-05-06 13:09 34.85750 33.68267 3278 ft 235 kts 94°
2026-05-06 13:09 34.86045 33.70159 3053 ft 227 kts 63°
2026-05-06 13:09 34.87001 33.71668 2809 ft 226 kts 48°
2026-05-06 13:10 34.88096 33.73041 2557 ft 227 kts 46°
2026-05-06 13:10 34.89219 33.74407 2351 ft 229 kts 46°
2026-05-06 13:10 34.90342 33.75777 2232 ft 227 kts 45°
2026-05-06 13:10 34.91556 33.77024 2105 ft 230 kts 29°
2026-05-06 13:11 34.93086 33.77508 2005 ft 228 kts
2026-05-06 13:11 34.94119 33.77296 1945 ft 227 kts 340°
2026-05-06 13:11 34.95410 33.76267 1856 ft 215 kts 311°
2026-05-06 13:11 34.96040 33.74783 1775 ft 188 kts 278°
2026-05-06 13:12 34.95949 33.73276 1689 ft 174 kts 246°
2026-05-06 13:12 34.95293 33.72080 1617 ft 169 kts 223°
2026-05-06 13:12 34.94485 33.71094 1551 ft 161 kts 222°
2026-05-06 13:12 34.93729 33.70169 1414 ft 148 kts 224°
2026-05-06 13:13 34.93018 33.69299 1257 ft 142 kts 224°
2026-05-06 13:13 34.92326 33.68454 1085 ft 143 kts 222°
2026-05-06 13:13 34.91625 33.67595 917 ft 144 kts 222°
2026-05-06 13:13 34.90920 33.66733 744 ft 143 kts 222°
2026-05-06 13:14 34.90218 33.65884 575 ft 142 kts 222°
2026-05-06 13:14 34.89521 33.65025 425 ft 143 kts 225°
2026-05-06 13:14 34.88824 33.64153 243 ft 141 kts 222°
2026-05-06 13:14 34.88136 33.63319 47 ft 139 kts 223°
2026-05-06 13:15 34.87508 33.62560 19 ft 107 kts 226°
2026-05-06 13:15 34.87108 33.62069 22 ft 56 kts 224°
2026-05-06 13:15 34.86953 33.61738 21 ft 39 kts 256°
2026-05-06 13:15 34.86920 33.61575 19 ft 5 kts 256°
2026-05-06 13:16 34.86912 33.61531 19 ft 6 kts 256°
2026-05-06 13:16 34.86903 33.61484 20 ft 0 kts 257°
2026-05-06 13:16 34.86901 33.61476 19 ft 2 kts 257°
2026-05-06 13:16 34.86890 33.61442 19 ft 9 kts 241°
2026-05-06 13:17 34.86817 33.61351 19 ft 19 kts 224°
2026-05-06 13:17 34.86725 33.61239 20 ft 18 kts 225°
2026-05-06 13:17 34.86643 33.61133 22 ft 15 kts 237°
2026-05-06 13:17 34.86687 33.61023 21 ft 16 kts 316°
2026-05-06 13:18 34.86766 33.60929 20 ft 15 kts 320°
2026-05-06 13:18 34.86805 33.60957 20 ft 7 kts 49°
2026-05-06 13:18 34.86832 33.60991 22 ft 2 kts 45°
2026-05-06 13:18 34.86836 33.60996 22 ft 0 kts 45°